[ hide orbit diagram ]
For accurate long-term ephemerides, please instead use our Horizons system.This orbit viewer was implemented using two-body methods, and hence should not be used for determining accurate long-term trajectories (over several years or decades) or planetary encounter circumstances.
Orbital Elements at Epoch 2459200.5 (2020-Dec-17.0) TDB
Reference: JPL 34 (heliocentric ecliptic J2000)
Element | Value | Uncertainty (1-sigma) | Units |
e | .1534355097173766 | 3.2416e-08 | |
a | 2.445909832427649 | 7.0538e-09 | au |
q | 2.07062041056637 | 7.8311e-08 | au |
i | 3.626153443736887 | 3.1042e-06 | deg |
node | 228.2496681008045 | 5.7283e-05 | deg |
peri | 244.8379324235576 | 5.8378e-05 | deg |
M | 97.62479233749295 | 1.0265e-05 | deg |
tp | 2458821.606885102322 (2019-Dec-04.10688510) | 3.9932e-05 | TDB |
period | 1397.201654387324 3.83 | 6.0441e-06 1.655e-08 | d yr |
n | .2576578684040142 | 1.1146e-09 | deg/d |
Q | 2.821199254288929 | 8.1361e-09 | au |
|
| | Orbit Determination Parameters
Additional Information
|
[ show covariance matrix ]
Physical Parameter Table
Parameter |
Symbol |
Value |
Units |
Sigma |
Reference |
Notes |
absolute magnitude |
H |
13.75 |
|
n/a |
E2021B10 |
|
diameter |
diameter |
5.312 |
km |
0.189 |
urn:nasa:pds:neowise_diameters_albedos::2.0[mainbelt] (http://adsabs.harvard.edu/abs/2011ApJ...741...68M) |
|
geometric albedo |
albedo |
0.172 |
|
0.018 |
urn:nasa:pds:neowise_diameters_albedos::2.0[mainbelt] (http://adsabs.harvard.edu/abs/2011ApJ...741...68M) |
|
|
6586 Seydler (1984 UK1) Discovered 1984-Oct-28 by Mrkos, A. at Klet |
Reference: DISCOVERY.DB | Last Updated: 2003-08-29 |
|
|